Regional Weather Roundup
Issued by NWS

Home | Current Version | Previous Version | Text Only | Print | Product List | Glossary On
Versions: 1 2 3 4 5 6 7 8 9 10 11 12 13 14 15 16 17 18 19 20 21 22 23 24 25 26 27 28 29 30 31 32 33 34 35 36 37 38 39 40 41 42 43 44 45 46 47 48 49 50
000
ASUS43 KLSX 292359
RWRMO

WEATHER SUMMARY FOR MISSOURI
NATIONAL WEATHER SERVICE SPRINGFIELD MO
700 PM CDT TUE JUL 29 2014

NOTE: "FAIR" INDICATES FEW OR NO CLOUDS BELOW 12,000 FEET WITH NO
       SIGNIFICANT WEATHER AND/OR OBSTRUCTIONS TO VISIBILITY.
       CURRENT SKY AND/OR WEATHER CONDITIONS ARE NOT AVAILABLE FOR
       CHILLICOTHE AND FARMINGTON.

MOZ001>031-035>038-043-044-053-054-300100-
...NORTHERN AND WESTERN MISSOURI...

CITY           SKY/WX    TMP DP  RH WIND       PRES   REMARKS
KANSAS CTY INT PTSUNNY   79  58  48 N5        30.10F
6HR MIN TEMP:  77; 6HR MAX TEMP:  83;

KANSAS C DTWN  SUNNY     81  57  43 N6        30.08F
6HR MIN TEMP:  79; 6HR MAX TEMP:  84;

LEE`S SUMMIT   SUNNY     80  56  43 N6        30.10F
6HR MIN TEMP:  78; 6HR MAX TEMP:  83;

ST JOSEPH      MOSUNNY   78  60  53 N3        30.10F
6HR MIN TEMP:  75; 6HR MAX TEMP:  81;

KIRKSVILLE     SUNNY     78  56  46 NW3       30.10F
6HR MIN TEMP:  75; 6HR MAX TEMP:  81;


$$
MOZ066>068-077>081-088>096-101>105-300100-
...SOUTHWEST MISSOURI...

CITY           SKY/WX    TMP DP  RH WIND       PRES   REMARKS
SPRINGFIELD    MOSUNNY   81  54  39 VRB3      30.09F
6HR MIN TEMP:  78; 6HR MAX TEMP:  86;

JOPLIN         CLOUDY    79  59  50 NW6       30.10F
6HR MIN TEMP:  79; 6HR MAX TEMP:  84;


$$
MOZ032>034-039>042-045>050-055>058-069>072-300100-
...CENTRAL MISSOURI...

CITY           SKY/WX    TMP DP  RH WIND       PRES   REMARKS
COLUMBIA       PTSUNNY   80  54  40 N6        30.09F
6HR MIN TEMP:  77; 6HR MAX TEMP:  82;

JEFFERSON CITY SUNNY     81  51  35 N6        30.07F
6HR MIN TEMP:  77; 6HR MAX TEMP:  82;

ROLLA          MOSUNNY   80  52  37 N6        30.08F
6HR MIN TEMP:  76; 6HR MAX TEMP:  82;

SEDALIA        SUNNY     78  58  49 N5        30.10F
6HR MIN TEMP:  77; 6HR MAX TEMP:  83;

OSAGE BEACH      N/A     79  55  44 N3        30.08F

$$
MOZ051-052-059>065-300100-
...EAST CENTRAL MISSOURI...

CITY           SKY/WX    TMP DP  RH WIND       PRES   REMARKS
ST LOUIS INTL  MOSUNNY   78  56  46 N8        30.08F
6HR MIN TEMP:  77; 6HR MAX TEMP:  82;

SPIRIT OF STL  MOSUNNY   78  55  44 N7        30.07F
6HR MIN TEMP:  77; 6HR MAX TEMP:  82;

ST CHARLES     SUNNY     77  55  46 NW6       30.07F
6HR MIN TEMP:  76; 6HR MAX TEMP:  80;


$$
MOZ072>076-082>087-097>100-106>115-300100-
...SOUTH CENTRAL AND SOUTHEAST MISSOURI...

CITY           SKY/WX    TMP DP  RH WIND       PRES   REMARKS
CAPE GIRARDEAU SUNNY     75  58  55 SE5       30.08F
6HR MIN TEMP:  75; 6HR MAX TEMP:  80;

FARMINGTON     CLOUDY    77  54  44 SW3       30.11F
6HR MIN TEMP:  73; 6HR MAX TEMP:  79;

POPLAR BLUFF   SUNNY     76  58  53 CALM      30.08F
6HR MIN TEMP:  76; 6HR MAX TEMP:  80;

WEST PLAINS    CLOUDY    80  55  42 NW3       30.11F
6HR MIN TEMP:  77; 6HR MAX TEMP:  82;


$$


USA.gov is the U.S. government's official web portal to all federal, state and local government web resources and services.